Theta_e
303 305 305 304 303 303 303 304 303 303 301 300 301 301 301 301 301 302 302 302 302 302 306 311 311 322 326 329 333 330 331 330 330 331 330 329 328 327 327 326 327 323 321 322
305 305 304 304 303 303 304 305 306 304 302 300 301 301 301 300 300 300 301 301 303 303 305 316 321 321 323 325 331 331 331 330 330 330 329 329 328 328 328 326 324 322 321 323
305 305 304 305 305 306 305 305 305 305 303 301 300 302 301 301 300 300 300 300 300 301 304 311 318 318 318 320 328 331 330 330 330 330 329 328 328 328 328 325 324 323 321 322
306 304 304 306 306 306 308 305 305 304 306 305 301 303 301 301 301 301 301 300 300 301 302 310 315 313 313 312 320 322 327 331 330 330 328 327 328 326 326 326 325 324 322 322
305 306 307 307 305 305 308 305 306 304 305 304 303 303 301 300 300 300 301 300 301 302 303 314 311 307 306 309 314 319 323 328 328 330 329 328 327 327 327 327 326 325 323 322
305 304 304 305 305 306 304 304 303 303 304 305 303 304 302 301 301 301 301 300 301 303 310 307 306 305 304 305 310 316 318 319 323 327 327 329 329 328 328 327 326 326 325 323
305 306 304 305 307 305 305 304 305 305 305 303 300 302 303 303 305 305 304 301 305 309 306 305 305 304 302 302 304 310 312 311 318 320 322 323 326 325 329 328 327 327 326 325
303 304 307 306 307 308 305 304 305 304 302 302 299 302 303 304 303 303 304 307 306 304 303 302 302 301 300 299 300 303 305 308 311 315 314 316 320 322 323 323 327 327 327 326
301 304 304 304 306 306 307 306 303 307 305 307 306 307 305 302 304 307 305 303 303 301 300 300 299 298 298 297 297 298 299 300 303 306 308 310 313 315 317 321 323 327 327 326
300 303 308 307 305 304 306 305 307 308 307 313 310 307 303 303 303 303 302 300 299 299 298 298 298 297 296 296 296 296 297 297 300 301 304 304 305 308 309 309 314 313 317 319
301 302 306 308 305 304 305 307 308 309 306 314 310 305 301 302 301 301 300 299 299 298 296 296 296 296 295 295 295 295 296 297 298 297 299 301 300 302 304 305 307 308 311 312
300 301 306 306 304 300 302 306 307 310 310 307 305 303 299 300 300 299 298 297 296 296 294 293 294 294 295 295 294 294 296 297 297 296 297 297 298 299 301 300 301 305 307 308
301 304 304 305 303 301 304 304 307 306 305 304 305 302 299 299 298 298 297 297 296 295 294 293 293 293 292 293 292 293 294 295 294 297 298 298 298 297 298 300 300 301 304 305
301 303 303 304 305 303 301 304 303 303 303 300 301 299 299 298 298 297 296 295 294 293 293 293 292 291 290 290 290 291 291 293 294 293 294 294 295 297 297 298 299 299 300 301
296 303 302 302 303 302 301 301 302 303 302 301 300 298 297 297 297 297 295 294 293 292 291 291 290 290 290 289 289 289 290 291 292 291 292 292 292 294 295 296 297 296 298 297
294 302 297 301 298 301 301 299 301 300 301 301 300 298 296 295 295 296 295 294 293 292 291 290 289 288 287 287 287 287 288 289 291 291 291 291 292 292 292 293 293 296 295 294
294 293 295 306 296 302 302 297 298 300 299 300 299 298 296 294 293 292 294 293 292 291 291 290 289 288 287 286 287 287 287 287 287 287 288 289 290 290 290 291 290 289 290 291
293 290 291 304 300 306 302 295 296 299 296 296 300 299 297 294 292 291 290 292 291 291 290 289 288 288 287 287 287 287 287 287 287 286 286 286 286 287 288 288 288 287 286 285
290 291 296 306 302 302 301 293 291 294 297 294 297 297 297 296 297 293 290 289 289 289 288 287 287 287 287 287 287 287 286 286 286 285 286 287 287 286 286 286 286 285 286 285
287 287 297 298 304 306 299 290 288 290 300 293 295 295 296 298 299 294 289 288 288 287 287 287 286 286 286 286 286 286 286 285 285 286 286 287 287 286 286 286 285 285 285 284
288 287 291 295 301 299 291 289 288 302 298 292 294 295 296 295 293 290 289 288 287 287 286 286 286 285 285 286 287 285 285 284 285 286 287 287 287 287 286 286 285 285 284 284
289 291 291 286 297 297 288 292 295 291 291 291 292 292 292 291 290 288 288 287 287 286 285 285 285 284 286 287 288 286 285 285 286 286 287 286 286 286 285 285 285 284 284 283
295 289 292 291 294 287 287 289 288 289 290 291 292 290 289 288 287 286 286 284 283 283 283 284 285 285 285 286 286 286 285 285 286 286 286 286 286 286 285 285 285 284 283 283
286 283 289 290 288 288 288 287 287 287 289 288 288 287 288 287 285 284 284 283 282 282 282 283 284 284 283 285 286 285 285 285 285 286 286 286 286 285 285 285 285 284 284 284
287 284 286 289 288 285 286 285 286 286 284 285 283 284 286 287 285 285 284 283 282 283 283 283 283 283 282 282 283 284 285 285 286 286 286 285 285 285 285 285 284 284 284 284
285 289 291 294 288 290 289 284 282 284 285 282 284 284 282 284 285 283 282 281 282 282 282 283 283 283 282 282 283 283 284 284 285 285 285 285 285 285 285 285 285 285 285 284
Wind_Speed
7 5 13 21 22 23 19 20 25 20 8 11 19 23 25 20 18 19 19 17 17 19 17 24 22 16 15 14 25 29 29 33 31 27 28 26 28 31 22 26 34 33 28 21
6 14 23 21 20 22 22 24 28 26 18 14 21 25 24 22 20 21 20 19 17 17 17 15 16 12 12 12 25 28 31 32 36 31 30 26 28 27 29 22 31 33 30 24
11 20 13 16 19 20 21 25 24 24 12 17 19 21 23 24 21 23 23 21 20 19 17 15 13 11 9 8 13 26 30 32 34 33 31 29 23 22 23 23 26 35 33 31
12 16 13 15 23 21 22 24 26 23 12 11 14 10 16 19 20 22 23 21 20 20 18 13 10 7 5 5 10 11 12 30 38 34 32 33 30 29 32 31 32 34 33 29
12 16 17 17 25 18 19 12 12 17 14 18 22 8 17 19 18 21 22 20 21 20 17 13 7 4 1 3 6 8 9 12 18 39 35 36 31 27 22 25 27 27 31 33
22 17 15 16 15 12 4 2 5 9 10 12 18 17 17 17 22 23 23 20 21 15 10 8 8 6 4 2 3 5 6 6 7 13 19 20 24 28 29 28 25 26 27 32
17 3 4 5 5 3 4 6 3 4 6 8 2 11 17 10 8 9 13 20 15 15 11 9 8 9 6 7 3 9 7 11 5 5 4 7 11 12 21 27 30 25 26 27
10 10 1 2 6 4 10 7 4 6 5 4 4 7 3 12 12 16 16 14 17 13 9 7 6 12 7 9 9 12 10 13 8 2 1 4 7 14 18 21 25 31 29 28
7 7 4 12 8 3 5 9 5 5 5 6 6 2 4 16 8 11 16 15 13 12 10 8 8 13 11 11 16 14 14 14 15 9 4 4 2 7 13 18 23 34 30 29
5 10 2 5 4 3 6 2 4 5 4 5 4 3 11 15 10 12 16 14 14 12 12 10 7 13 12 15 20 17 18 19 21 14 15 12 6 3 3 5 13 15 23 23
8 5 8 7 6 12 7 5 5 4 6 4 3 4 13 12 10 10 11 12 13 13 13 9 6 12 14 22 22 20 25 27 22 18 18 18 14 12 13 13 14 14 16 14
3 5 7 4 4 14 7 10 4 4 2 4 3 4 14 11 11 10 14 13 13 13 11 8 9 12 18 21 24 25 29 29 24 22 23 23 22 21 21 22 19 16 19 18
8 5 7 7 3 16 7 19 5 7 3 15 4 4 10 14 15 14 13 13 14 15 9 8 12 12 18 22 23 29 26 24 19 22 24 25 23 24 25 24 23 23 24 23
3 4 7 8 8 11 17 26 25 11 9 13 11 11 14 16 14 12 13 15 14 11 10 11 11 14 18 20 21 24 20 21 20 19 23 22 22 22 22 23 21 22 23 21
5 3 2 5 13 19 23 23 24 23 15 10 11 16 14 13 13 13 13 14 13 13 12 12 11 11 17 20 21 22 21 22 22 20 24 22 20 22 23 23 22 21 22 20
9 3 2 1 8 10 21 24 21 20 13 13 12 16 12 12 14 16 14 12 11 13 12 11 11 16 18 18 19 20 20 22 25 24 24 20 21 22 23 22 21 22 22 21
8 6 6 3 8 8 12 15 16 12 15 9 13 8 10 16 17 15 12 13 12 11 12 14 14 15 16 17 16 17 17 19 19 21 19 19 18 21 22 23 22 20 21 21
6 4 3 3 5 7 3 9 5 7 17 16 10 9 9 12 12 14 15 13 14 13 14 13 16 18 17 15 16 15 17 19 20 20 18 18 14 18 20 21 22 19 18 21
3 2 3 3 3 1 2 5 6 7 11 14 12 12 9 3 7 16 15 13 12 12 14 16 15 14 14 15 13 16 18 18 20 18 19 17 16 17 18 18 17 16 17 19
1 4 0 2 4 5 2 2 3 4 9 15 12 8 7 4 9 5 10 10 12 14 14 12 12 14 15 12 13 17 16 17 18 16 16 15 15 14 16 15 15 15 16 17
5 4 5 3 3 3 3 11 0 3 3 8 9 9 11 7 4 3 4 9 9 10 11 10 13 14 14 14 14 17 15 16 13 14 14 14 13 13 12 13 13 12 13 12
2 2 2 1 2 4 7 4 4 1 2 2 4 7 10 8 6 5 6 7 9 10 10 11 11 14 14 15 15 15 16 12 11 11 12 12 11 10 9 9 10 10 9 9
1 1 1 2 2 2 4 4 3 1 2 3 3 3 6 5 4 3 4 6 7 8 9 10 11 12 13 14 12 12 10 9 9 8 8 8 8 7 7 6 7 6 6 5
2 2 2 1 2 2 2 2 1 3 3 3 2 1 2 5 3 4 4 7 9 10 12 11 12 14 14 12 10 9 7 6 6 6 5 5 4 5 5 4 3 3 3 3
1 4 2 3 3 2 4 4 1 1 2 2 2 1 4 5 3 3 3 6 7 9 10 12 14 14 13 12 12 10 7 6 5 4 4 4 4 4 3 3 2 2 1 0
6 5 3 2 2 1 2 4 3 3 2 1 1 3 3 3 4 5 6 6 7 9 9 10 11 10 11 11 11 11 10 8 8 7 6 5 5 5 6 6 6 6 4 4
Wind_Direction
197 212 228 231 223 239 272 268 269 271 279 252 242 254 263 262 262 260 256 255 252 260 263 260 249 243 251 245 210 199 191 195 193 192 184 184 195 210 213 213 215 214 206 201
232 229 241 253 254 248 249 257 259 269 254 236 258 258 260 263 258 259 261 249 248 253 257 250 229 231 241 246 214 199 199 199 198 199 194 193 202 210 217 214 214 215 209 204
255 261 272 254 255 251 237 239 256 254 279 237 265 268 263 258 248 253 251 249 248 248 253 247 230 226 239 230 210 213 202 199 194 198 197 199 211 216 217 211 213 215 213 211
254 265 263 257 253 245 255 238 250 262 256 250 201 269 262 251 243 241 248 237 232 240 238 242 215 220 236 248 205 210 200 203 205 211 202 201 201 203 211 211 214 214 216 214
263 284 274 256 260 270 268 288 235 240 251 264 248 254 258 250 255 247 245 234 225 228 229 204 189 184 217 240 221 217 212 202 207 197 201 203 211 210 210 210 214 211 215 216
258 265 277 265 275 257 294 128 202 237 246 247 249 220 263 245 243 254 243 222 216 207 162 151 153 139 99 120 175 177 179 148 175 167 199 211 228 210 206 195 204 209 211 215
314 257 282 249 259 172 163 160 210 224 218 254 313 208 253 323 237 241 263 211 177 154 142 150 150 114 87 73 84 126 125 96 114 174 155 216 230 256 187 204 210 214 213 211
338 319 204 167 233 252 192 192 195 239 224 287 146 238 231 314 273 261 258 150 144 117 124 134 133 100 94 78 73 90 99 91 92 96 357 229 263 267 259 244 223 215 217 213
307 270 252 289 278 214 169 218 204 275 244 272 200 307 212 349 314 158 119 131 103 108 114 107 90 92 87 79 74 78 87 81 84 72 84 45 360 261 254 250 251 201 212 209
283 288 245 306 297 271 258 114 193 212 265 234 93 54 336 339 6 114 108 107 101 104 99 77 82 93 91 88 80 74 76 76 72 70 72 71 64 99 167 180 175 171 178 176
277 247 307 324 30 346 319 269 247 233 236 313 62 23 343 8 26 74 95 95 95 92 78 69 65 77 85 79 77 73 72 73 77 78 85 88 80 92 106 111 109 116 128 128
274 306 306 306 346 354 293 292 235 271 76 48 81 42 353 21 35 64 77 79 79 78 67 68 70 78 76 77 70 65 70 73 77 82 87 88 89 86 90 93 92 99 106 114
326 346 328 344 333 2 355 21 46 46 22 25 42 8 355 25 35 39 66 72 70 62 63 63 54 58 60 66 66 68 72 74 73 82 83 83 84 83 86 85 88 95 95 99
327 26 26 16 350 353 21 26 34 50 59 64 56 52 20 28 36 42 51 58 61 63 59 64 55 51 56 57 55 71 71 82 77 76 83 81 80 83 82 85 85 87 92 92
36 351 359 63 41 34 32 24 28 44 35 53 46 51 27 31 43 47 56 58 57 60 54 55 55 49 52 56 58 61 65 75 81 76 76 74 79 86 87 87 89 88 88 89
359 307 332 237 341 28 33 20 27 33 25 48 51 52 18 32 42 44 46 53 56 59 56 57 55 52 49 53 58 66 66 74 79 75 76 78 80 81 81 81 83 87 86 85
349 335 355 15 354 339 29 359 359 23 25 18 41 33 30 42 41 27 41 51 55 58 63 65 63 64 63 61 63 61 70 71 69 72 72 72 74 81 84 88 82 81 93 99
310 333 339 329 325 32 45 351 336 9 31 13 28 34 52 63 54 36 28 45 48 49 52 56 59 60 59 67 72 75 73 71 67 62 60 65 69 78 84 87 89 92 89 92
226 292 38 54 34 122 72 20 6 357 29 18 7 7 5 59 55 38 27 34 41 47 50 53 56 63 66 64 70 76 71 72 71 64 65 66 70 72 72 76 83 92 96 96
303 17 126 26 60 21 34 349 338 299 38 7 8 29 29 336 74 39 5 26 38 46 47 53 54 59 62 61 77 80 73 70 67 69 72 74 73 75 82 85 81 82 89 92
339 9 48 55 76 289 328 323 273 63 7 353 19 44 70 77 61 81 53 63 53 54 52 61 65 61 55 62 74 75 75 68 73 79 79 74 75 75 78 88 90 89 89 91
328 357 44 171 68 2 15 301 68 46 345 29 62 55 83 89 92 84 66 60 55 56 50 52 58 60 58 64 68 70 65 65 70 73 75 74 77 80 87 89 91 92 89 92
23 243 324 223 101 323 320 9 22 354 34 27 65 85 105 108 93 68 83 74 58 54 60 61 74 72 61 60 64 71 67 65 63 64 68 69 69 75 76 77 85 96 103 103
207 168 259 287 178 231 307 319 349 24 87 85 70 50 88 101 77 64 40 35 49 54 57 64 73 65 57 56 57 56 51 56 60 62 53 48 41 43 53 56 66 94 112 101
25 145 189 269 253 264 223 239 247 87 95 126 102 77 115 126 115 99 92 75 67 62 54 53 55 51 47 46 46 44 40 33 33 31 21 5 354 355 354 355 329 319 302 244
187 179 181 201 173 121 130 148 142 166 160 53 109 115 71 79 98 100 90 85 79 71 68 57 47 40 31 26 22 18 14 7 360 0 351 330 319 315 318 321 319 316 306 282